| time (UTC) | temp F | wind direction | speed MPH | gust MPH | rain 1hr in | rain 24hr in | rain mn in | humidity % | barometer mb |
| 20260510184557 | 71 | 231 | 0.0 | 3.0 | 0.00 | 0.00 | 0.00 | 27 | 1010.9 |
| 20260510183056 | 71 | 245 | 0.0 | 2.0 | 0.00 | 0.00 | 0.00 | 26 | 1011.1 |
| 20260510181556 | 71 | 327 | 0.0 | 1.0 | 0.00 | 0.00 | 0.00 | 26 | 1011.0 |
| 20260510180109 | 71 | 153 | 0.0 | 1.0 | 0.00 | 0.00 | 0.00 | 26 | 1011.2 |
| 20260510174550 | 69 | 243 | 0.0 | 2.0 | 0.00 | 0.00 | 0.00 | 25 | 1011.2 |
| 20260510173046 | 68 | 166 | 0.0 | 1.0 | 0.00 | 0.00 | 0.00 | 27 | 1011.2 |
| 20260510171543 | 67 | 253 | 0.0 | 1.0 | 0.00 | 0.00 | 0.00 | 30 | 1011.1 |
| 20260510170042 | 64 | 222 | 0.0 | 1.0 | 0.00 | 0.00 | 0.00 | 38 | 1011.2 |
| 20260510164536 | 62 | 239 | 0.0 | 1.0 | 0.00 | 0.00 | 0.00 | 36 | 1011.3 |
| 20260510163035 | 62 | 226 | 0.0 | 1.0 | 0.00 | 0.00 | 0.00 | 37 | 1011.2 |
| 20260510161528 | 61 | 184 | 0.0 | 1.0 | 0.00 | 0.00 | 0.00 | 43 | 1011.2 |
| 20260510160024 | 59 | 184 | 0.0 | 0.0 | 0.00 | 0.00 | 0.00 | 41 | 1011.3 |
| 20260510154520 | 56 | 185 | 0.0 | 0.0 | 0.00 | 0.00 | 0.00 | 41 | 1011.3 |
| 20260510153014 | 55 | 185 | 0.0 | 0.0 | 0.00 | 0.00 | 0.00 | 42 | 1011.4 |
| 20260510151510 | 53 | 184 | 0.0 | 0.0 | 0.00 | 0.00 | 0.00 | 48 | 1011.5 |
| 20260510150007 | 50 | 187 | 0.0 | 0.0 | 0.00 | 0.00 | 0.00 | 49 | 1011.7 |
| 20260510144502 | 49 | 226 | 0.0 | 1.0 | 0.00 | 0.00 | 0.00 | 49 | 1011.7 |
| 20260510143110 | 47 | 162 | 0.0 | 1.0 | 0.00 | 0.00 | 0.00 | 47 | 1011.7 |
| 20260510141601 | 47 | 134 | 0.0 | 1.0 | 0.00 | 0.00 | 0.00 | 44 | 1011.7 |
| 20260510140055 | 46 | 179 | 0.0 | 1.0 | 0.00 | 0.00 | 0.00 | 43 | 1011.7 |
| 20260510134600 | 45 | 131 | 0.0 | 1.0 | 0.00 | 0.00 | 0.00 | 42 | 1011.5 |
| 20260510133054 | 45 | 204 | 0.0 | 1.0 | 0.00 | 0.00 | 0.00 | 42 | 1011.4 |
| 20260510131554 | 44 | 187 | 0.0 | 1.0 | 0.00 | 0.00 | 0.00 | 42 | 1011.4 |
| 20260510130054 | 44 | 178 | 0.0 | 1.0 | 0.00 | 0.00 | 0.00 | 43 | 1011.4 |
| 20260510124552 | 44 | 174 | 0.0 | 0.0 | 0.00 | 0.00 | 0.00 | 43 | 1011.5 |
| 20260510123050 | 44 | 174 | 0.0 | 1.0 | 0.00 | 0.00 | 0.00 | 42 | 1011.5 |
| 20260510121548 | 44 | 155 | 0.0 | 1.0 | 0.00 | 0.00 | 0.00 | 42 | 1011.7 |
| 20260510120048 | 44 | 226 | 0.0 | 0.0 | 0.00 | 0.00 | 0.00 | 43 | 1011.6 |
| 20260510114546 | 45 | 255 | 0.0 | 0.0 | 0.00 | 0.00 | 0.00 | 43 | 1011.7 |
| 20260510113045 | 45 | 217 | 0.0 | 1.0 | 0.00 | 0.00 | 0.00 | 41 | 1011.8 |
| 20260510111552 | 46 | 215 | 0.0 | 0.0 | 0.00 | 0.00 | 0.00 | 39 | 1011.8 |
| 20260510110042 | 47 | 162 | 0.0 | 0.0 | 0.00 | 0.00 | 0.00 | 38 | 1011.7 |
| 20260510104548 | 47 | 176 | 0.0 | 1.0 | 0.00 | 0.00 | 0.00 | 36 | 1011.7 |
| 20260510103044 | 46 | 43 | 0.0 | 0.0 | 0.00 | 0.00 | 0.00 | 38 | 1011.7 |
| 20260510101537 | 46 | 222 | 0.0 | 1.0 | 0.00 | 0.00 | 0.00 | 37 | 1011.7 |
| 20260510100036 | 46 | 256 | 0.0 | 0.0 | 0.00 | 0.00 | 0.00 | 37 | 1011.8 |
| 20260510094535 | 46 | 16 | 0.0 | 0.0 | 0.00 | 0.00 | 0.00 | 41 | 1011.7 |
| 20260510093040 | 46 | 177 | 0.0 | 1.0 | 0.00 | 0.00 | 0.00 | 42 | 1011.6 |
| 20260510091534 | 45 | 155 | 0.0 | 1.0 | 0.00 | 0.00 | 0.00 | 42 | 1011.7 |
| 20260510090033 | 46 | 182 | 0.0 | 1.0 | 0.00 | 0.00 | 0.00 | 42 | 1011.7 |
| 20260510084532 | 46 | 37 | 0.0 | 1.0 | 0.00 | 0.00 | 0.00 | 41 | 1011.8 |
| 20260510083036 | 46 | 93 | 0.0 | 1.0 | 0.00 | 0.00 | 0.00 | 41 | 1011.9 |
| 20260510081539 | 46 | 148 | 0.0 | 1.0 | 0.00 | 0.00 | 0.00 | 40 | 1011.9 |
| 20260510080029 | 46 | 148 | 0.0 | 1.0 | 0.00 | 0.00 | 0.00 | 41 | 1011.9 |
| 20260510074526 | 45 | 150 | 0.0 | 1.0 | 0.00 | 0.00 | 0.00 | 43 | 1012.0 |
| 20260510073024 | 46 | 239 | 0.0 | 0.0 | 0.00 | 0.00 | 0.00 | 44 | 1012.1 |
| 20260510071521 | 46 | 203 | 0.0 | 0.0 | 0.00 | 0.00 | 0.00 | 43 | 1012.2 |
| 20260510070023 | 46 | 243 | 0.0 | 0.0 | 0.00 | 0.00 | 0.00 | 42 | 1012.1 |
| 20260510064520 | 47 | 269 | 0.0 | 0.0 | 0.00 | 0.00 | 0.00 | 42 | 1012.1 |
| 20260510063027 | 47 | 236 | 0.0 | 0.0 | 0.00 | 0.00 | 0.00 | 41 | 1012.0 |
| 20260510061520 | 48 | 242 | 0.0 | 0.0 | 0.00 | 0.00 | 0.00 | 41 | 1011.9 |
| 20260510060033 | 48 | 219 | 0.0 | 0.0 | 0.00 | 0.00 | 0.00 | 40 | 1011.9 |
| 20260510054522 | 48 | 239 | 0.0 | 0.0 | 0.00 | 0.00 | 0.00 | 39 | 1011.8 |
| 20260510053027 | 49 | 240 | 0.0 | 0.0 | 0.00 | 0.00 | 0.00 | 39 | 1011.9 |
| 20260510051521 | 49 | 190 | 0.0 | 0.0 | 0.00 | 0.00 | 0.00 | 39 | 1011.9 |
| 20260510050015 | 50 | 131 | 0.0 | 1.0 | 0.00 | 0.00 | 0.00 | 37 | 1011.9 |
| 20260510044533 | 50 | 148 | 0.0 | 1.0 | 0.00 | 0.00 | 0.00 | 38 | 1011.9 |
| 20260510043014 | 50 | 201 | 0.0 | 0.0 | 0.00 | 0.00 | 0.00 | 38 | 1011.8 |
| 20260510041513 | 51 | 194 | 0.0 | 1.0 | 0.00 | 0.00 | 0.00 | 39 | 1011.6 |
| 20260510040021 | 52 | 160 | 0.0 | 0.0 | 0.00 | 0.00 | 0.00 | 38 | 1011.4 |
| 20260510034512 | 53 | 110 | 0.0 | 0.0 | 0.00 | 0.00 | 0.00 | 36 | 1011.2 |
| 20260510033012 | 54 | 259 | 0.0 | 1.0 | 0.00 | 0.00 | 0.00 | 34 | 1011.0 |
| 20260510031511 | 55 | 175 | 0.0 | 1.0 | 0.00 | 0.00 | 0.00 | 34 | 1010.8 |
| 20260510030014 | 56 | 154 | 0.0 | 1.0 | 0.00 | 0.00 | 0.00 | 33 | 1010.6 |
| 20260510024510 | 58 | 151 | 0.0 | 1.0 | 0.00 | 0.00 | 0.00 | 33 | 1010.5 |
| 20260510023009 | 59 | 86 | 0.0 | 0.0 | 0.00 | 0.00 | 0.00 | 31 | 1010.3 |
| 20260510021509 | 61 | 86 | 0.0 | 0.0 | 0.00 | 0.00 | 0.00 | 29 | 1010.2 |
| 20260510020017 | 63 | 78 | 0.0 | 0.0 | 0.00 | 0.00 | 0.00 | 27 | 1010.2 |
| 20260510014508 | 65 | 294 | 0.0 | 0.0 | 0.00 | 0.00 | 0.00 | 29 | 1010.2 |
| 20260510013008 | 65 | 266 | 0.0 | 1.0 | 0.00 | 0.00 | 0.00 | 26 | 1010.3 |
| 20260510011506 | 66 | 267 | 0.0 | 1.0 | 0.00 | 0.00 | 0.00 | 20 | 1010.3 |
| 20260510010005 | 67 | 270 | 0.0 | 4.0 | 0.00 | 0.00 | 0.00 | 20 | 1010.3 |
| 20260510004504 | 67 | 165 | 0.0 | 2.0 | 0.00 | 0.00 | 0.00 | 20 | 1010.5 |
| 20260510003003 | 68 | 321 | 0.0 | 2.0 | 0.00 | 0.00 | 0.00 | 19 | 1010.5 |
| 20260510001502 | 69 | 218 | 0.0 | 2.0 | 0.00 | 0.00 | 0.00 | 19 | 1010.5 |
| 20260510000001 | 70 | 248 | 0.0 | 4.0 | 0.00 | 0.00 | 0.00 | 20 | 1010.6 |
| 20260509234601 | 71 | 225 | 0.0 | 3.0 | 0.00 | 0.00 | 0.00 | 19 | 1010.7 |
| 20260509233103 | 70 | 82 | 0.0 | 5.0 | 0.00 | 0.00 | 0.00 | 19 | 1010.9 |
| 20260509231556 | 70 | 246 | 0.0 | 5.0 | 0.00 | 0.00 | 0.00 | 18 | 1010.9 |
| 20260509230053 | 70 | 218 | 0.0 | 4.0 | 0.00 | 0.00 | 0.00 | 20 | 1011.1 |
| 20260509224552 | 71 | 166 | 1.0 | 4.0 | 0.00 | 0.00 | 0.00 | 19 | 1011.2 |
| 20260509223056 | 71 | 311 | 0.0 | 4.0 | 0.00 | 0.00 | 0.00 | 15 | 1011.5 |
| 20260509221548 | 71 | 257 | 0.0 | 2.0 | 0.00 | 0.00 | 0.00 | 16 | 1011.5 |
| 20260509220045 | 71 | 245 | 0.0 | 4.0 | 0.00 | 0.00 | 0.00 | 20 | 1011.6 |
| 20260509214545 | 70 | 233 | 0.0 | 3.0 | 0.00 | 0.00 | 0.00 | 19 | 1011.7 |
| 20260509213041 | 70 | 246 | 1.0 | 9.0 | 0.00 | 0.00 | 0.00 | 20 | 1011.8 |
| 20260509211541 | 70 | 347 | 0.0 | 4.0 | 0.00 | 0.00 | 0.00 | 20 | 1011.9 |
| 20260509210037 | 68 | 255 | 0.0 | 6.0 | 0.00 | 0.00 | 0.00 | 23 | 1011.9 |
| 20260509204533 | 68 | 85 | 1.0 | 6.0 | 0.00 | 0.00 | 0.00 | 23 | 1012.1 |
| 20260509203030 | 68 | 194 | 0.0 | 5.0 | 0.00 | 0.00 | 0.00 | 24 | 1012.3 |
| 20260509201529 | 67 | 262 | 1.0 | 5.0 | 0.00 | 0.00 | 0.00 | 24 | 1012.5 |
| 20260509200026 | 67 | 158 | 0.0 | 3.0 | 0.00 | 0.00 | 0.00 | 26 | 1012.6 |
| 20260509194523 | 66 | 278 | 0.0 | 5.0 | 0.00 | 0.00 | 0.00 | 25 | 1012.9 |
| 20260509193022 | 65 | 200 | 0.0 | 6.0 | 0.00 | 0.00 | 0.00 | 25 | 1013.0 |
| 20260509191517 | 65 | 40 | 0.0 | 3.0 | 0.00 | 0.00 | 0.00 | 26 | 1013.2 |
| 20260509190021 | 64 | 301 | 0.0 | 4.0 | 0.00 | 0.00 | 0.00 | 26 | 1013.3 |